EW2373 Weather Reports


time (UTC)temp
C
wind
direction
speed
KPH
gust
KPH
rain 1hr
cm
rain 24hr
cm
rain mn
cm
humidity
%
barometer
mb
20260505151520 10 49 0.0 0.0 0.79 1.93 1.93 1 1010.3
20260505140106 12 13 0.0 0.0 0.03 1.14 1.14 1 1009.5
20260505124537 13 345 0.0 0.0 0.00 1.04 1.04 1 1009.2
20260505123029 14 338 0.0 0.0 0.00 1.04 1.04 1 1009.1
20260505121525 -17 0.0 0.0 0.00 1.04 1.04 1008.8
20260505120020 -17 0.0 0.0 0.00 1.04 1.04 1008.6
20260505114530 -17 0.0 0.0 0.00 1.04 1.04 1008.8
20260505113013 -17 0.0 0.0 0.00 1.04 1.04 1008.3
20260505111507 -17 0.0 0.0 0.00 1.04 1.04 1008.0
20260505101550 13 190 0.0 0.0 0.00 1.04 1.04 1 1007.1
20260505100051 13 177 0.0 0.0 0.00 1.04 1.04 1 1007.3
20260505094542 13 193 0.0 0.0 0.00 1.12 1.04 1 1006.9
20260505093036 13 147 0.0 0.0 0.00 1.12 1.04 1 1007.1
20260505091547 13 243 0.0 0.0 0.05 1.12 1.04 1 1007.4
20260505090047 13 196 0.0 0.0 0.30 1.12 1.04 1 1007.6
20260505084530 13 342 0.0 0.0 0.71 1.27 1.04 1 1007.6
20260505083033 13 342 0.0 0.0 0.81 1.27 1.04 1 1008.2
20260505081522 13 342 0.0 0.0 0.91 1.22 0.99 1 1008.4
20260505080011 13 356 0.0 0.0 0.69 0.91 0.69 1 1008.7
20260505074507 14 127 0.0 0.0 0.30 0.53 0.30 1 1007.9
20260505073004 15 63 0.0 0.0 0.23 0.46 0.23 1 1008.1
20260505071558 17 14 0.0 0.0 0.08 0.30 0.08 32 1008.5
20260505070056 19 326 0.0 0.0 0.00 0.23 0.00 48 1008.5
20260505064551 19 239 0.0 0.0 0.00 0.23 0.00 48 1006.6
20260505063055 18 242 0.0 0.0 0.00 0.23 0.00 49 1006.1
20260505061615 18 242 0.0 0.0 0.00 0.23 0.00 50 1005.7
20260505060050 19 240 0.0 0.0 0.00 0.23 0.00 52 1005.4
20260505054555 19 216 0.0 0.0 0.00 0.23 0.00 52 1005.1
20260505053043 19 249 0.0 0.0 0.00 0.23 0.00 52 1005.0
20260505051540 19 193 0.0 0.0 0.00 0.23 0.00 53 1005.0
20260505041525 20 226 0.0 0.0 0.00 0.23 0.23 54 1004.8
20260505040024 20 244 0.0 0.0 0.00 0.23 0.23 54 1004.7
20260505034522 20 231 0.0 0.0 0.00 0.23 0.23 53 1005.1
20260505033032 20 188 0.0 0.0 0.00 0.23 0.23 52 1004.9
20260505031521 20 199 0.0 0.0 0.00 0.23 0.23 52 1004.9
20260505030020 20 202 0.0 0.0 0.00 0.23 0.23 54 1004.9
20260505024538 20 174 0.0 0.0 0.00 0.23 0.23 55 1004.9
20260505023012 21 184 0.0 0.0 0.00 0.23 0.23 54 1004.8
20260505021525 21 221 0.0 0.0 0.00 0.23 0.23 52 1004.9
20260505020002 22 198 0.0 0.0 0.00 0.23 0.23 50 1004.4
20260505014559 22 228 0.0 0.0 0.00 0.23 0.23 49 1003.0
20260505013056 21 224 0.0 0.0 0.00 0.23 0.23 51 1003.7
20260505011555 21 237 0.0 0.0 0.00 0.23 0.23 50 1003.9
20260505010046 21 167 0.0 0.0 0.00 0.23 0.23 51 1004.4
20260505004545 21 236 0.0 0.0 0.00 0.23 0.23 50 1004.3
20260505003036 21 223 0.0 0.0 0.00 0.23 0.23 49 1004.2
20260505001533 22 178 0.0 0.0 0.00 0.23 0.23 49 1004.0
20260505000026 22 230 0.0 0.0 0.00 0.23 0.23 46 1003.9
20260504234521 23 225 0.0 0.0 0.00 0.23 0.23 46 1004.1
20260504233018 23 172 0.0 0.0 0.00 0.23 0.23 48 1004.3
20260504231513 23 240 0.0 0.0 0.00 0.23 0.23 46 1004.4
20260504230009 23 169 0.0 0.0 0.00 0.23 0.23 46 1004.1
20260504224507 24 194 0.0 0.0 0.00 0.23 0.23 45 1004.1
20260504223104 24 221 0.0 0.0 0.00 0.23 0.23 45 1004.0
20260504221605 23 237 0.0 0.0 0.00 0.23 0.23 45 1004.6
20260504220113 24 197 0.0 0.0 0.00 0.23 0.23 45 1004.7
20260504214545 23 200 0.0 0.0 0.00 0.23 0.23 44 1004.7
20260504213045 -17 191 0.0 0.0 0.00 0.23 0.23 1004.8
20260504211536 -17 174 0.0 0.0 0.00 0.23 0.23 1005.0
20260504210032 22 153 0.0 0.0 0.00 0.23 0.23 44 1005.6
20260504204534 22 217 0.0 0.0 0.00 0.23 0.23 43 1006.2
20260504203026 22 220 0.0 0.0 0.00 0.23 0.23 43 1006.3
20260504201519 22 197 0.0 0.0 0.00 0.23 0.23 42 1006.2
20260504200017 21 196 0.0 0.0 0.00 0.23 0.23 43 1006.2
20260504194510 21 238 0.0 0.0 0.00 0.23 0.23 44 1008.0
20260504193006 -17 229 0.0 0.0 0.00 0.23 0.23 1008.0
20260504191507 -17 207 0.0 0.0 0.00 0.23 0.23 1008.0
20260504190100 22 222 0.0 0.0 0.00 0.23 0.23 44 1007.3
20260504184559 23 247 0.0 0.0 0.00 0.23 0.23 43 1007.0
20260504183049 23 232 0.0 0.0 0.00 0.23 0.23 42 1007.2
20260504181549 22 242 0.0 0.0 0.00 0.23 0.23 41 1006.9
20260504180041 22 251 0.0 0.0 0.00 0.23 0.23 40 1007.1
20260504174537 22 228 0.0 0.0 0.00 0.23 0.23 39 1007.3
20260504173032 22 226 0.0 0.0 0.00 0.23 0.23 38 1007.5
20260504171528 22 249 0.0 0.0 0.00 0.23 0.23 37 1007.8